Powrót do katalogu

STARLINK-35434

AktywnyŁącznośćVLEO
NORAD 66246·PAYLOAD·🇺🇸 United States

Wystrzelony Oct 29, 2025 z Cape Canaveral Space Force Station

Loading…

Następne Przeloty (najbliższe 24 godziny)

TLE

ŚwieżeSource: CelesTrak SupGP

Epoka: Sep 15, 2026, 03:23 UTC

1 66246C 25245N   26258.14145833  .00026998  00000+0  86814-3 0  2585
2 66246  53.1574 122.5785 0001278  81.2039 191.4884 15.31690418    16

Śledź STARLINK-35434 w czasie rzeczywistym z AllMySat

Download on the App Store